KD4PYR Weather Reports


Display with metric or nautical units.
time (UTC)temp
F
wind
direction
speed
MPH
gust
MPH
rain 1hr
in
rain 24hr
in
rain mn
in
humidity
%
barometer
mb
20260906175831 82 355 3.0 8.0 0.00 0.13 0.01 53 1016.9
20260906174815 81 346 2.0 8.0 0.00 0.13 0.01 54 1016.9
20260906173834 81 61 2.0 11.0 0.00 0.13 0.01 54 1017.0
20260906172827 80 55 2.0 6.0 0.00 0.13 0.01 54 1017.1
20260906171820 80 83 1.0 8.0 0.00 0.13 0.01 55 1017.1
20260906170838 79 346 3.0 9.0 0.00 0.13 0.01 56 1017.1
20260906165839 78 80 2.0 10.0 0.00 0.13 0.01 58 1017.3
20260906164820 79 75 2.0 9.0 0.00 0.13 0.01 57 1017.4
20260906163839 78 68 2.0 9.0 0.00 0.13 0.01 60 1017.4
20260906162830 78 67 2.0 7.0 0.00 0.13 0.01 61 1017.6
20260906161847 77 67 2.0 8.0 0.00 0.13 0.01 61 1017.7
20260906160817 76 39 3.0 7.0 0.00 0.13 0.01 62 1017.8
20260906155821 75 78 4.0 9.0 0.00 0.13 0.01 63 1017.9
20260906154823 75 34 3.0 6.0 0.00 0.13 0.01 65 1017.9
20260906153902 75 332 5.0 13.0 0.00 0.13 0.01 66 1017.6
20260906152833 75 10 2.0 9.0 0.00 0.13 0.01 68 1017.8
20260906151824 74 71 1.0 8.0 0.00 0.13 0.01 69 1017.7
20260906150814 74 75 3.0 8.0 0.00 0.13 0.01 70 1017.6
20260906145816 73 85 2.0 7.0 0.00 0.13 0.01 70 1017.6
20260906144839 73 15 1.0 6.0 0.00 0.13 0.01 72 1017.5
20260906143832 73 80 2.0 8.0 0.00 0.13 0.01 73 1017.4
20260906142852 72 78 0.0 9.0 0.00 0.13 0.01 74 1017.3
20260906141823 71 340 2.0 8.0 0.00 0.13 0.01 73 1017.3
20260906140815 71 17 1.0 6.0 0.00 0.13 0.01 74 1017.3
20260906135838 71 80 1.0 8.0 0.00 0.13 0.01 74 1017.1
20260906134820 70 78 2.0 6.0 0.00 0.13 0.01 73 1017.2
20260906133837 70 72 3.0 9.0 0.00 0.13 0.01 74 1017.1
20260906132827 69 79 1.0 10.0 0.00 0.13 0.01 74 1017.1
20260906131907 69 80 1.0 11.0 0.00 0.13 0.01 74 1017.0
20260906130838 68 20 1.0 4.0 0.00 0.13 0.01 75 1017.0
20260906125823 68 63 1.0 3.0 0.00 0.13 0.01 77 1016.9
20260906124825 67 63 1.0 4.0 0.00 0.13 0.01 77 1016.8
20260906123816 67 44 1.0 4.0 0.00 0.13 0.01 78 1016.8
20260906122854 67 41 1.0 4.0 0.00 0.13 0.01 79 1016.7
20260906121825 66 355 0.0 4.0 0.00 0.13 0.01 80 1016.6
20260906120843 66 59 0.0 4.0 0.00 0.13 0.01 81 1016.6
20260906115824 66 64 0.0 2.0 0.00 0.13 0.01 81 1016.4
20260906114827 67 64 1.0 5.0 0.00 0.13 0.01 82 1016.1
20260906113845 67 9 0.0 2.0 0.00 0.13 0.01 82 1015.9
20260906112836 67 5 1.0 4.0 0.00 0.13 0.01 83 1015.9
20260906111827 67 77 0.0 2.0 0.00 0.13 0.01 83 1015.8
20260906110822 68 9 1.0 5.0 0.00 0.13 0.01 84 1015.7
20260906105823 68 266 0.0 6.0 0.00 0.13 0.01 84 1015.7
20260906104842 68 266 1.0 4.0 0.00 0.13 0.01 84 1015.6
20260906103837 69 266 1.0 4.0 0.00 0.13 0.01 84 1015.4
20260906102829 69 265 0.0 3.0 0.00 0.13 0.01 85 1015.3
20260906101848 69 265 1.0 4.0 0.00 0.13 0.01 85 1015.1
20260906100845 70 265 2.0 4.0 0.00 0.13 0.01 85 1015.0
20260906095851 70 265 0.0 2.0 0.00 0.13 0.01 85 1015.0
20260906094832 70 265 0.0 3.0 0.00 0.13 0.01 85 1014.9
20260906093824 70 264 0.0 2.0 0.00 0.13 0.01 85 1014.9
20260906092841 70 264 0.0 2.0 0.00 0.13 0.01 85 1014.9
20260906091814 70 263 1.0 3.0 0.00 0.13 0.01 85 1014.7
20260906090832 70 263 1.0 4.0 0.00 0.13 0.01 85 1014.6
20260906085816 70 263 0.0 2.0 0.00 0.13 0.01 85 1014.5
20260906084840 70 263 0.0 4.0 0.00 0.13 0.01 85 1014.5
20260906083815 70 263 1.0 4.0 0.00 0.13 0.01 85 1014.4
20260906082832 70 261 1.0 3.0 0.00 0.13 0.01 85 1014.5
20260906081851 70 261 1.0 4.0 0.00 0.13 0.01 85 1014.5
20260906080822 71 261 1.0 4.0 0.00 0.13 0.01 85 1014.4
20260906075825 71 259 0.0 2.0 0.00 0.13 0.01 85 1014.4
20260906074829 71 259 0.0 3.0 0.00 0.13 0.01 85 1014.4
20260906073823 71 259 0.0 3.0 0.00 0.13 0.01 85 1014.3
20260906072844 71 259 1.0 4.0 0.00 0.13 0.01 85 1014.3
20260906071837 71 259 0.0 2.0 0.00 0.13 0.01 85 1014.4
20260906070858 71 259 0.0 1.0 0.00 0.13 0.01 85 1014.5
20260906065840 71 259 0.0 2.0 0.00 0.13 0.01 85 1014.6
20260906064823 71 259 0.0 2.0 0.00 0.13 0.01 85 1014.5
20260906063902 71 259 0.0 2.0 0.00 0.13 0.01 85 1014.5
20260906062832 71 259 0.0 1.0 0.00 0.13 0.01 85 1014.7
20260906061824 71 259 0.0 2.0 0.00 0.13 0.01 85 1014.8
20260906060814 71 259 0.0 2.0 0.00 0.13 0.01 85 1014.7
20260906055838 71 259 0.0 2.0 0.00 0.13 0.01 85 1014.8
20260906054841 71 259 1.0 3.0 0.00 0.13 0.01 85 1014.7
20260906053814 71 259 0.0 0.0 0.00 0.13 0.01 85 1014.8
20260906052834 71 259 0.0 0.0 0.01 0.13 0.01 85 1014.7
20260906051830 72 259 0.0 0.0 0.01 0.13 0.01 85 1014.9
20260906050821 72 259 0.0 3.0 0.01 0.13 0.01 85 1014.7
20260906045845 72 257 2.0 4.0 0.01 0.13 0.01 85 1014.6
20260906044830 72 257 0.0 1.0 0.01 0.13 0.01 85 1014.5
20260906043821 72 257 0.0 1.0 0.01 0.13 0.01 85 1014.4
20260906043000 72 257 0.0 1.0 0.00 0.12 0.00 85 1014.3
20260906041838 72 257 0.0 1.0 0.00 0.12 0.00 85 1014.1
20260906040828 72 257 0.0 1.0 0.00 0.12 0.00 85 1014.1
20260906035831 72 257 0.0 0.0 0.00 0.12 0.12 85 1014.0
20260906034815 72 257 0.0 0.0 0.00 0.12 0.12 85 1014.1
20260906033833 73 257 0.0 1.0 0.00 0.12 0.12 85 1014.1
20260906032853 73 257 0.0 2.0 0.00 0.12 0.12 85 1014.1
20260906031823 73 257 0.0 1.0 0.00 0.12 0.12 85 1014.0
20260906030901 73 257 0.0 1.0 0.00 0.12 0.12 85 1013.9
20260906025845 73 257 0.0 2.0 0.00 0.12 0.12 84 1013.9
20260906024825 73 257 0.0 1.0 0.00 0.12 0.12 85 1014.0
20260906023845 72 257 0.0 1.0 0.00 0.12 0.12 84 1013.7
20260906022838 73 257 0.0 1.0 0.00 0.12 0.12 84 1013.9
20260906021830 73 257 0.0 3.0 0.00 0.12 0.12 84 1013.9
20260906020847 73 244 0.0 1.0 0.00 0.12 0.12 83 1014.0
20260906015830 73 244 0.0 1.0 0.06 0.12 0.12 83 1014.0
20260906014834 73 244 0.0 0.0 0.12 0.12 0.12 83 1014.1
20260906013825 73 244 0.0 1.0 0.12 0.12 0.12 83 1013.8
20260906012845 74 244 1.0 5.0 0.12 0.12 0.12 82 1013.8
20260906011838 74 306 0.0 1.0 0.12 0.12 0.12 81 1014.1
20260906010827 75 306 0.0 4.0 0.12 0.12 0.12 81 1014.3
20260906005830 76 309 3.0 5.0 0.05 0.05 0.05 80 1014.2
20260906004833 77 47 0.0 5.0 0.00 0.00 0.00 78 1014.1
20260906003826 78 72 4.0 10.0 0.00 0.00 0.00 78 1013.7
20260906002816 79 70 3.0 8.0 0.00 0.00 0.00 76 1013.7
20260906001834 81 43 1.0 4.0 0.00 0.00 0.00 74 1013.7
20260906000854 81 62 0.0 5.0 0.00 0.00 0.00 74 1012.2
20260905235818 81 49 0.0 2.0 0.00 0.00 0.00 74 1012.4
20260905234822 81 49 0.0 2.0 0.00 0.00 0.00 73 1012.8
20260905233819 82 49 0.0 2.0 0.00 0.00 0.00 72 1012.9
20260905232854 82 49 0.0 2.0 0.00 0.00 0.00 71 1012.9
20260905231831 84 49 1.0 5.0 0.00 0.00 0.00 69 1013.4
20260905230821 85 336 1.0 4.0 0.00 0.00 0.00 67 1012.9
20260905225824 87 293 1.0 3.0 0.00 0.00 0.00 64 1012.8
20260905224827 89 292 0.0 0.0 0.00 0.00 0.00 64 1013.0
20260905223820 88 292 0.0 1.0 0.00 0.00 0.00 62 1012.8
20260905222838 89 292 1.0 3.0 0.00 0.00 0.00 61 1012.8
20260905221832 89 292 2.0 8.0 0.00 0.00 0.00 60 1012.9
20260905220821 89 306 5.0 8.0 0.00 0.00 0.00 59 1012.8
20260905215826 89 342 4.0 9.0 0.00 0.00 0.00 60 1012.7
20260905214846 89 325 3.0 4.0 0.00 0.00 0.00 60 1012.6
20260905213845 89 317 2.0 8.0 0.00 0.00 0.00 60 1012.5
20260905212816 89 310 4.0 8.0 0.00 0.00 0.00 59 1012.6
20260905211855 90 290 5.0 10.0 0.00 0.00 0.00 58 1012.6
20260905210827 91 346 5.0 12.0 0.00 0.00 0.00 56 1012.7
20260905205829 91 296 1.0 4.0 0.00 0.00 0.00 56 1012.7
20260905204830 91 296 5.0 12.0 0.00 0.00 0.00 55 1012.9
20260905203821 91 350 4.0 11.0 0.00 0.00 0.00 55 1012.8
20260905202838 91 296 5.0 11.0 0.00 0.00 0.00 58 1012.8
20260905201835 91 310 4.0 11.0 0.00 0.00 0.00 55 1013.1
20260905200825 91 297 3.0 6.0 0.00 0.00 0.00 55 1013.1
20260905195829 91 240 2.0 5.0 0.00 0.00 0.00 55 1013.2
20260905194831 91 309 4.0 10.0 0.00 0.00 0.00 54 1013.4
20260905193851 92 287 3.0 8.0 0.00 0.00 0.00 55 1013.5
20260905192821 91 165 3.0 11.0 0.00 0.00 0.00 54 1013.7
20260905191841 92 315 3.0 6.0 0.00 0.00 0.00 53 1013.8
20260905190830 92 158 2.0 5.0 0.00 0.00 0.00 53 1014.0
20260905185833 92 167 3.0 8.0 0.00 0.00 0.00 55 1014.2
20260905184818 91 141 1.0 7.0 0.00 0.00 0.00 55 1014.4
20260905183835 90 360 1.0 6.0 0.00 0.00 0.00 55 1014.4
20260905182826 90 161 2.0 7.0 0.00 0.00 0.00 56 1014.5
20260905181816 89 157 2.0 9.0 0.00 0.00 0.00 58 1014.6
20260905180831 88 313 1.0 7.0 0.00 0.00 0.00 58 1014.5